Regional Weather Roundup
Issued by NWS

Home | Current Version | Previous Version | Text Only | Print | Product List | Glossary On
Versions: 1 2 3 4 5 6 7 8 9 10 11 12 13 14 15 16 17 18 19 20 21 22 23 24 25 26 27 28 29 30 31 32 33 34 35 36 37 38 39 40 41 42 43 44 45 46 47 48 49 50
000
ASUS43 KOAX 261502
RWRNE

WEATHER ROUNDUP FOR NEBRASKA
NATIONAL WEATHER SERVICE OMAHA NE
1000 AM CDT SUN MAR 26 2017

NOTES: SATELLITE DATA IS BEING USED TO AUGMENT CLOUD COVER ABOVE
       12000 FEET.
       "FAIR" INDICATES FEW OR NO CLOUDS BELOW 12,000 FEET WITH NO
       SIGNIFICANT WEATHER AND/OR OBSTRUCTIONS TO VISIBILITY.

  * THESE STATIONS DO NOT REPORT WEATHER SUCH AS RAIN...SNOW OR FOG.

NEZ001>004-019>022-054>056-261600-
NEBRASKA PANHANDLE

CITY           SKY/WX    TMP DP  RH WIND       PRES   REMARKS
SCOTTSBLUFF    CLOUDY    48  32  53 N12       29.87R
ALLIANCE       CLOUDY    43  37  79 CALM      29.84R
CHADRON        CLOUDY    45  34  65 N9        29.90R
KIMBALL        CLOUDY    44  38  80 N16       29.87R
SIDNEY         CLOUDY    45  36  70 NE5       29.86R
$$

NEZ057>060-069>072-079>082-261600-
SOUTHWEST NEBRASKA

CITY           SKY/WX    TMP DP  RH WIND       PRES   REMARKS
NORTH PLATTE   CLOUDY    41  38  89 S7        29.90R
IMPERIAL       CLOUDY    39  39 100 SE3       29.87S FOG
LEXINGTON      CLOUDY    41  38  89 CALM      29.92R
MCCOOK         CLOUDY    41  40  96 E5        29.88F
OGALLALA       CLOUDY    42  41  97 SE6       29.88S
$$

NEZ005>010-023>029-035>040-094-261600-
NORTH CENTRAL NEBRASKA

CITY           SKY/WX    TMP DP  RH WIND       PRES   REMARKS
VALENTINE      CLOUDY    41  36  82 SW6       29.87S
AINSWORTH      FOG       38  38 100 CALM      29.89S VSB 3/4
BROKEN BOW     CLOUDY    42  41  96 CALM      29.90R
O`NEILL        CLOUDY    39  39 100 CALM      29.91S FOG
ORD            CLOUDY    40  38  93 CALM      29.91R FOG
THEDFORD       CLOUDY    41  40  95 SW3       29.89S
$$

NEZ041-046>049-061>064-073>077-083>087-261600-
SOUTH CENTRAL NEBRASKA

CITY           SKY/WX    TMP DP  RH WIND       PRES   REMARKS
GRAND ISLAND   CLOUDY    40  40 100 CALM      29.93R FOG
AURORA         CLOUDY    39  39 100 CALM      29.92R FOG
HASTINGS       CLOUDY    41  39  93 CALM      29.93R FOG
HEBRON         CLOUDY    40  39  95 CALM      29.93S FOG
HOLDREGE       CLOUDY    41  40  95 CALM      29.91R FOG
KEARNEY *      CLOUDY    41  37  87 CALM      29.92S
YORK           CLOUDY    41  39  93 CALM      29.92R
$$

NEZ011>018-030>034-042>045-261600-
NORTHEAST NEBRASKA

CITY           SKY/WX    TMP DP  RH WIND       PRES   REMARKS
NORFOLK        CLOUDY    39  36  89 NW5       29.91S
ALBION         CLOUDY    41  38  87 CALM      29.92R FOG
BLAIR          CLOUDY    40  39  97 N7        29.90S FOG
FREMONT        CLOUDY    40  40  99 N3        29.92S
TEKAMAH        CLOUDY    41  38  89 N8        29.92R
WAYNE          CLOUDY    39  39  98 N6        29.92R WCI  35
$$

NEZ050>053-065>068-078-088>093-261600-
SOUTHEAST NEBRASKA

CITY           SKY/WX    TMP DP  RH WIND       PRES   REMARKS
LINCOLN        CLOUDY    42  39  89 N3        29.93R FOG
OMAHA EPPLEY   CLOUDY    42  38  85 N7        29.91R FOG
BEATRICE       CLOUDY    42  40  93 CALM      29.92S
FALLS CITY     CLOUDY    44  41  89 W7        29.92R
NEBRASKA CITY  CLOUDY    41  41 100 N5        29.91R FOG
PLATTSMOUTH    CLOUDY    41  38  87 N3        29.90F
$$

NEZ044-045-051>053-067-261600-
OMAHA AREA

CITY           SKY/WX    TMP DP  RH WIND       PRES   REMARKS
OMAHA EPPLEY   CLOUDY    42  38  85 N7        29.91R FOG
BLAIR          CLOUDY    40  39  97 N7        29.90S FOG
FREMONT        CLOUDY    40  40  99 N3        29.92S
MILLARD        CLOUDY    43  40  89 N3        29.91F
OFFUTT AFB     CLOUDY    43  39  87 N5        29.90S
PLATTSMOUTH    CLOUDY    41  38  87 N3        29.90F
WAHOO          CLOUDY    41  39  93 N8        29.91S
$$



USA.gov is the U.S. government's official web portal to all federal, state and local government web resources and services.